GW5009 Weather Reports


time (UTC)temp
C
wind
direction
speed
KPH
gust
KPH
rain 1hr
cm
rain 24hr
cm
rain mn
cm
humidity
%
barometer
mb
20260906070055 26 69 0.0 1.6 0.00 0.00 0.00 82 1010.7
20260906064515 26 133 3.2 6.4 0.00 0.00 0.00 83 1010.8
20260906063049 26 24 0.0 0.0 0.00 0.00 0.00 83 1010.8
20260906061512 26 24 0.0 0.0 0.00 0.00 0.00 82 1010.9
20260906060027 26 24 0.0 0.0 0.00 0.00 0.00 82 1011.0
20260906054612 26 24 0.0 0.0 0.00 0.00 0.00 82 1011.1
20260906054500 26 24 0.0 0.0 0.00 0.00 0.00 82 1011.1
20260906053024 26 24 0.0 1.6 0.00 0.00 0.00 81 1011.1
20260906051542 26 24 0.0 1.6 0.00 0.00 0.00 81 1011.0
20260906050058 26 105 0.0 3.2 0.00 0.00 0.00 80 1010.9
20260906044519 27 34 0.0 0.0 0.00 0.00 0.00 79 1010.9
20260906043034 27 34 0.0 0.0 0.00 0.00 0.00 79 1010.8
20260906041550 27 34 0.0 0.0 0.00 0.00 0.00 78 1010.8
20260906040018 27 34 0.0 0.0 0.00 0.00 0.00 77 1010.7
20260906034603 27 34 0.0 0.0 0.00 0.00 0.00 76 1010.8
20260906033018 27 34 0.0 0.0 0.00 0.00 0.00 75 1010.9
20260906031536 27 34 0.0 0.0 0.00 0.00 0.00 75 1010.8
20260906030055 28 34 0.0 0.0 0.00 0.00 0.00 74 1010.7
20260906024517 28 34 0.0 0.0 0.00 0.00 0.00 72 1010.9
20260906023053 28 34 0.0 0.0 0.00 0.00 0.00 71 1010.8
20260906021510 28 34 0.0 0.0 0.00 0.00 0.00 71 1010.7
20260906020036 28 34 0.0 0.0 0.00 0.00 0.00 70 1010.4
20260906014553 29 34 0.0 0.0 0.00 0.00 0.00 67 1010.2
20260906013010 30 34 0.0 0.0 0.00 0.00 0.00 66 1010.1
20260906011533 30 34 0.0 0.0 0.00 0.00 0.00 65 1009.9
20260906010125 30 34 0.0 0.0 0.00 0.00 0.00 64 1009.6
20260906004518 31 34 0.0 0.0 0.00 0.00 0.00 62 1009.6
20260906003035 31 34 0.0 0.0 0.00 0.00 0.00 61 1009.6
20260906001509 32 34 0.0 0.0 0.00 0.00 0.00 58 1009.5
20260906000036 33 34 0.0 0.0 0.00 0.00 0.00 55 1009.6
20260905234552 34 34 0.0 0.0 0.00 0.00 0.00 53 1009.7
20260905233023 35 34 0.0 0.0 0.00 0.00 0.00 49 1009.7
20260905231555 36 5 0.0 3.2 0.00 0.00 0.00 47 1009.8
20260905230021 36 315 0.0 1.6 0.00 0.00 0.00 46 1009.8
20260905224537 37 13 0.0 3.2 0.00 0.00 0.00 46 1009.8
20260905223057 37 337 0.0 3.2 0.00 0.00 0.00 46 1009.7
20260905221523 37 200 1.6 6.4 0.00 0.00 0.00 47 1009.8
20260905220058 38 42 0.0 11.3 0.00 0.00 0.00 45 1009.8
20260905214513 38 111 1.6 4.8 0.00 0.00 0.00 41 1009.7
20260905213034 39 39 1.6 6.4 0.00 0.00 0.00 41 1009.7
20260905211547 38 101 0.0 12.9 0.00 0.00 0.00 41 1009.8
20260905210005 38 35 1.6 4.8 0.00 0.00 0.00 40 1010.0
20260905204517 39 59 1.6 12.9 0.00 0.00 0.00 41 1010.3
20260905203039 37 84 1.6 8.0 0.00 0.00 0.00 44 1010.5
20260905201521 40 113 1.6 8.0 0.00 0.00 0.00 40 1010.8
20260905200059 39 101 3.2 8.0 0.00 0.00 0.00 41 1010.8
20260905194552 39 88 0.0 9.7 0.00 0.00 0.00 40 1011.3
20260905193017 37 238 0.0 6.4 0.00 0.00 0.00 43 1011.5
20260905191600 40 302 3.2 16.1 0.00 0.00 0.00 42 1011.6
20260905191502 40 92 3.2 8.0 0.00 0.00 0.00 42 1011.6
20260905190018 39 62 3.2 11.3 0.00 0.00 0.00 44 1011.8
20260905184548 39 348 1.6 17.7 0.00 0.00 0.00 43 1011.9
20260905183046 38 115 1.6 9.7 0.00 0.00 0.00 45 1011.9
20260905181510 37 321 1.6 6.4 0.00 0.00 0.00 46 1012.2
20260905180037 37 348 0.0 4.8 0.00 0.00 0.00 47 1012.3
20260905174510 36 43 1.6 8.0 0.00 0.00 0.00 48 1012.5
20260905173038 37 306 1.6 4.8 0.00 0.00 0.00 48 1012.6
20260905171545 38 346 1.6 6.4 0.00 0.00 0.00 46 1012.7
20260905170021 37 285 1.6 6.4 0.00 0.00 0.00 47 1012.8
20260905164544 36 360 1.6 6.4 0.00 0.00 0.00 48 1012.9
20260905163052 36 306 1.6 9.7 0.00 0.00 0.00 51 1013.2
20260905161508 35 288 0.0 11.3 0.00 0.00 0.00 57 1013.4
20260905160028 35 271 4.8 8.0 0.00 0.00 0.00 55 1013.5
20260905154546 33 318 0.0 4.8 0.00 0.00 0.00 58 1013.4
20260905153014 33 5 1.6 4.8 0.00 0.00 0.00 59 1013.4
20260905151548 32 347 0.0 3.2 0.00 0.00 0.00 62 1013.4
20260905150057 32 250 0.0 4.8 0.00 0.00 0.00 62 1013.5
20260905144518 31 279 1.6 4.8 0.00 0.00 0.00 66 1013.4
20260905143054 30 293 1.6 4.8 0.00 0.00 0.00 67 1013.3
20260905141514 30 325 0.0 3.2 0.00 0.00 0.00 70 1013.4
20260905140033 29 301 0.0 0.0 0.00 0.00 0.00 72 1013.3
20260905134536 28 96 0.0 0.0 0.00 0.00 0.00 74 1013.3
20260905133011 27 96 0.0 0.0 0.00 0.00 0.00 76 1013.3
20260905131540 27 96 0.0 1.6 0.00 0.00 0.00 81 1013.2
20260905130018 26 96 0.0 0.0 0.00 0.00 0.00 85 1013.2
20260905124521 25 96 0.0 0.0 0.00 0.00 0.00 86 1013.3
20260905123040 25 138 0.0 0.0 0.00 0.00 0.00 87 1013.2
20260905121515 25 138 0.0 0.0 0.00 0.00 0.00 87 1013.0
20260905120057 24 138 0.0 0.0 0.00 0.00 0.00 88 1013.0
20260905114547 24 138 0.0 0.0 0.00 0.00 0.00 88 1013.1
20260905113048 24 138 0.0 0.0 0.00 0.00 0.00 87 1012.8
20260905111528 24 138 0.0 0.0 0.00 0.00 0.00 87 1012.8
20260905110018 24 138 0.0 0.0 0.00 0.00 0.00 86 1012.6
20260905104511 25 138 0.0 0.0 0.00 0.00 0.00 86 1012.5
20260905103052 25 138 0.0 0.0 0.00 0.00 0.00 85 1012.5
20260905101521 25 138 0.0 0.0 0.00 0.00 0.00 85 1012.3
20260905100026 25 138 0.0 0.0 0.00 0.00 0.00 85 1012.4
20260905094555 25 138 0.0 0.0 0.00 0.00 0.00 84 1012.4
20260905093053 25 138 0.0 0.0 0.00 0.00 0.00 84 1012.2
20260905091544 25 138 0.0 0.0 0.00 0.00 0.00 83 1012.4
20260905090049 25 138 0.0 0.0 0.00 0.00 0.00 83 1012.3
20260905084511 25 138 0.0 0.0 0.00 0.00 0.00 83 1012.3
20260905083044 25 138 0.0 0.0 0.00 0.00 0.00 82 1012.4
20260905081557 25 138 0.0 0.0 0.00 0.00 0.00 81 1012.4
20260905080027 25 138 0.0 0.0 0.00 0.00 0.00 81 1012.4
20260905074536 26 138 0.0 0.0 0.00 0.00 0.00 80 1012.5
20260905073053 26 138 0.0 0.0 0.00 0.00 0.00 79 1012.6
20260905071521 26 140 0.0 0.0 0.00 0.00 0.00 79 1012.6